| time (UTC) | temp F | wind direction | speed MPH | gust MPH | rain 1hr in | rain 24hr in | rain mn in | humidity % | barometer mb |
| 20260902170521 | 61 | 0.0 | 0.0 | 0.00 | 0.00 | 0.00 | 25 | 1005.4 | |
| 20260902165522 | 61 | 0.0 | 0.0 | 0.00 | 0.00 | 0.00 | 34 | 1005.5 | |
| 20260902164521 | 62 | 0.0 | 0.0 | 0.00 | 0.00 | 0.00 | 44 | 1005.5 | |
| 20260902163521 | 62 | 0.0 | 0.0 | 0.00 | 0.00 | 0.00 | 49 | 1005.5 | |
| 20260902162522 | 62 | 0.0 | 0.0 | 0.00 | 0.00 | 0.00 | 53 | 1005.5 | |
| 20260902161521 | 62 | 0.0 | 0.0 | 0.00 | 0.00 | 0.00 | 59 | 1005.5 | |
| 20260902160522 | 63 | 0.0 | 0.0 | 0.00 | 0.00 | 0.00 | 68 | 1005.5 | |
| 20260902155521 | 63 | 0.0 | 0.0 | 0.00 | 0.00 | 0.00 | 72 | 1005.6 | |
| 20260902154522 | 64 | 0.0 | 0.0 | 0.00 | 0.00 | 0.00 | 74 | 1005.7 | |
| 20260902153521 | 64 | 0.0 | 0.0 | 0.00 | 0.00 | 0.00 | 73 | 1005.8 | |
| 20260902152521 | 65 | 0.0 | 2.0 | 0.00 | 0.00 | 0.00 | 73 | 1005.8 | |
| 20260902151521 | 65 | 0.0 | 0.0 | 0.00 | 0.00 | 0.00 | 72 | 1005.7 | |
| 20260902150521 | 65 | 0.0 | 2.0 | 0.00 | 0.00 | 0.00 | 72 | 1005.8 | |
| 20260902145522 | 66 | 0.0 | 2.0 | 0.00 | 0.00 | 0.00 | 70 | 1005.8 | |
| 20260902144521 | 66 | 0.0 | 3.0 | 0.00 | 0.00 | 0.00 | 70 | 1005.9 | |
| 20260902143521 | 66 | 0.0 | 4.0 | 0.00 | 0.00 | 0.00 | 70 | 1005.9 | |
| 20260902142521 | 66 | 270 | 1.0 | 4.0 | 0.00 | 0.00 | 0.00 | 69 | 1005.9 |
| 20260902141522 | 66 | 0.0 | 4.0 | 0.00 | 0.00 | 0.00 | 70 | 1005.9 | |
| 20260902140521 | 66 | 293 | 1.0 | 4.0 | 0.00 | 0.00 | 0.00 | 69 | 1006.0 |
| 20260902135521 | 66 | 293 | 1.0 | 4.0 | 0.00 | 0.00 | 0.00 | 70 | 1006.0 |
| 20260902134521 | 66 | 0.0 | 3.0 | 0.00 | 0.00 | 0.00 | 69 | 1006.0 | |
| 20260902133521 | 66 | 0.0 | 4.0 | 0.00 | 0.00 | 0.00 | 69 | 1006.1 | |
| 20260902132521 | 66 | 270 | 1.0 | 6.0 | 0.00 | 0.00 | 0.00 | 69 | 1006.2 |
| 20260902131522 | 66 | 0.0 | 4.0 | 0.00 | 0.00 | 0.00 | 67 | 1006.2 | |
| 20260902130521 | 66 | 293 | 2.0 | 9.0 | 0.00 | 0.00 | 0.00 | 67 | 1006.2 |
| 20260902125522 | 66 | 293 | 2.0 | 7.0 | 0.00 | 0.00 | 0.00 | 67 | 1006.3 |
| 20260902124522 | 66 | 293 | 2.0 | 9.0 | 0.00 | 0.00 | 0.00 | 69 | 1006.3 |
| 20260902123521 | 66 | 270 | 2.0 | 10.0 | 0.00 | 0.00 | 0.00 | 68 | 1006.4 |
| 20260902122521 | 65 | 270 | 1.0 | 7.0 | 0.00 | 0.00 | 0.00 | 69 | 1006.3 |
| 20260902121541 | 65 | 293 | 2.0 | 8.0 | 0.00 | 0.00 | 0.00 | 70 | 1006.4 |
| 20260902101521 | 63 | 293 | 1.0 | 5.0 | 0.00 | 0.00 | 0.00 | 70 | 1006.8 |
| 20260902100521 | 62 | 248 | 1.0 | 7.0 | 0.00 | 0.00 | 0.00 | 72 | 1006.8 |
| 20260902095521 | 62 | 270 | 2.0 | 9.0 | 0.00 | 0.00 | 0.00 | 72 | 1006.8 |
| 20260902094522 | 61 | 293 | 1.0 | 8.0 | 0.00 | 0.00 | 0.00 | 73 | 1006.9 |
| 20260902093521 | 61 | 293 | 1.0 | 3.0 | 0.00 | 0.00 | 0.00 | 72 | 1006.9 |
| 20260902092521 | 60 | 293 | 1.0 | 8.0 | 0.00 | 0.00 | 0.00 | 72 | 1007.0 |
| 20260902091521 | 60 | 338 | 2.0 | 9.0 | 0.00 | 0.00 | 0.00 | 67 | 1007.1 |
| 20260902090542 | 59 | 293 | 2.0 | 6.0 | 0.00 | 0.00 | 0.00 | 65 | 1007.1 |
| 20260902080522 | 56 | 270 | 2.0 | 7.0 | 0.00 | 0.00 | 0.00 | 1 | 1007.3 |
| 20260902075521 | 56 | 270 | 2.0 | 9.0 | 0.00 | 0.01 | 0.00 | 1 | 1007.3 |
| 20260902074522 | 56 | 270 | 1.0 | 4.0 | 0.00 | 0.01 | 0.00 | 1 | 1007.2 |
| 20260902073521 | 56 | 0.0 | 2.0 | 0.00 | 0.01 | 0.00 | 1 | 1007.3 | |
| 20260902072521 | 56 | 293 | 1.0 | 4.0 | 0.00 | 0.01 | 0.00 | 1 | 1007.3 |
| 20260902071521 | 55 | 0.0 | 0.0 | 0.00 | 0.01 | 0.00 | 1 | 1007.2 | |
| 20260902070541 | 55 | 0.0 | 0.0 | 0.00 | 0.01 | 0.00 | 1 | 1007.1 | |
| 20260902060521 | 53 | 0.0 | 0.0 | 0.00 | 0.01 | 0.00 | 1 | 1007.0 | |
| 20260902055521 | 53 | 0.0 | 0.0 | 0.00 | 0.01 | 0.00 | 1 | 1006.9 | |
| 20260902054521 | 52 | 0.0 | 0.0 | 0.00 | 0.01 | 0.00 | 1 | 1006.9 | |
| 20260902053521 | 51 | 0.0 | 0.0 | 0.00 | 0.01 | 0.00 | 1 | 1006.9 | |
| 20260902052522 | 50 | 0.0 | 0.0 | 0.00 | 0.01 | 0.00 | 1 | 1006.9 | |
| 20260902051521 | 49 | 0.0 | 0.0 | 0.00 | 0.01 | 0.00 | 1 | 1006.8 | |
| 20260902050522 | 48 | 0.0 | 0.0 | 0.00 | 0.01 | 0.00 | 1 | 1006.9 | |
| 20260902045521 | 47 | 0.0 | 0.0 | 0.00 | 0.01 | 0.00 | 1 | 1006.8 | |
| 20260902044521 | 46 | 0.0 | 0.0 | 0.00 | 0.01 | 0.00 | 1 | 1006.8 | |
| 20260902043521 | 45 | 0.0 | 0.0 | 0.00 | 0.01 | 0.00 | 1 | 1006.8 | |
| 20260902042522 | 45 | 0.0 | 0.0 | 0.00 | 0.01 | 0.00 | 1 | 1006.8 | |
| 20260902041522 | 44 | 0.0 | 0.0 | 0.00 | 0.01 | 0.00 | 1 | 1006.8 | |
| 20260902040522 | 44 | 0.0 | 0.0 | 0.00 | 0.01 | 0.00 | 1 | 1006.7 | |
| 20260902035522 | 44 | 0.0 | 0.0 | 0.00 | 0.01 | 0.00 | 1 | 1006.7 | |
| 20260902034521 | 43 | 0.0 | 0.0 | 0.00 | 0.01 | 0.00 | 1 | 1006.6 | |
| 20260902033521 | 43 | 0.0 | 0.0 | 0.00 | 0.01 | 0.00 | 1 | 1006.6 | |
| 20260902032522 | 44 | 0.0 | 0.0 | 0.00 | 0.01 | 0.00 | 1 | 1006.6 | |
| 20260902031521 | 44 | 0.0 | 0.0 | 0.00 | 0.01 | 0.00 | 1 | 1006.5 | |
| 20260902030522 | 44 | 0.0 | 0.0 | 0.00 | 0.01 | 0.00 | 1 | 1006.6 | |
| 20260902025521 | 44 | 0.0 | 0.0 | 0.00 | 0.01 | 0.00 | 1 | 1006.6 | |
| 20260902024521 | 44 | 0.0 | 0.0 | 0.00 | 0.01 | 0.00 | 1 | 1006.6 | |
| 20260902023521 | 44 | 0.0 | 0.0 | 0.00 | 0.01 | 0.00 | 1 | 1006.6 | |
| 20260902022521 | 44 | 0.0 | 0.0 | 0.00 | 0.01 | 0.00 | 1 | 1006.6 | |
| 20260902021522 | 44 | 0.0 | 0.0 | 0.00 | 0.01 | 0.00 | 1 | 1006.6 | |
| 20260902020542 | 45 | 0.0 | 0.0 | 0.00 | 0.01 | 0.00 | 1 | 1006.5 | |
| 20260902010521 | 46 | 0.0 | 0.0 | 0.00 | 0.01 | 0.00 | 1 | 1006.6 | |
| 20260902005521 | 47 | 0.0 | 0.0 | 0.00 | 0.01 | 0.00 | 1 | 1006.6 | |
| 20260902004522 | 47 | 0.0 | 0.0 | 0.00 | 0.01 | 0.00 | 1 | 1006.7 | |
| 20260902003522 | 47 | 0.0 | 0.0 | 0.00 | 0.01 | 0.00 | 1 | 1006.7 | |
| 20260902002521 | 47 | 0.0 | 0.0 | 0.00 | 0.01 | 0.00 | 1 | 1006.7 | |
| 20260902001522 | 47 | 0.0 | 0.0 | 0.00 | 0.01 | 0.00 | 1 | 1006.7 | |
| 20260902000541 | 47 | 0.0 | 0.0 | 0.00 | 0.01 | 0.00 | 1 | 1006.7 | |
| 20260901230521 | 49 | 0.0 | 1.0 | 0.00 | 0.01 | 0.00 | 1 | 1006.8 | |
| 20260901225522 | 50 | 0.0 | 0.0 | 0.00 | 0.01 | 0.00 | 1 | 1006.9 | |
| 20260901224522 | 50 | 0.0 | 0.0 | 0.00 | 0.01 | 0.00 | 1 | 1006.8 | |
| 20260901223521 | 51 | 0.0 | 0.0 | 0.00 | 0.01 | 0.00 | 1 | 1006.7 | |
| 20260901222521 | 51 | 0.0 | 0.0 | 0.00 | 0.01 | 0.00 | 1 | 1006.7 | |
| 20260901221522 | 52 | 0.0 | 0.0 | 0.00 | 0.01 | 0.00 | 1 | 1006.8 | |
| 20260901220522 | 52 | 0.0 | 0.0 | 0.00 | 0.01 | 0.00 | 1 | 1006.6 | |
| 20260901215522 | 53 | 0.0 | 2.0 | 0.00 | 0.01 | 0.00 | 1 | 1006.7 | |
| 20260901214522 | 53 | 0.0 | 1.0 | 0.00 | 0.01 | 0.00 | 1 | 1006.7 | |
| 20260901213523 | 53 | 0.0 | 4.0 | 0.00 | 0.01 | 0.00 | 1 | 1006.8 | |
| 20260901212522 | 54 | 0.0 | 3.0 | 0.00 | 0.01 | 0.00 | 1 | 1006.7 | |
| 20260901211521 | 54 | 293 | 1.0 | 2.0 | 0.00 | 0.01 | 0.00 | 1 | 1006.6 |
| 20260901210522 | 54 | 0.0 | 0.0 | 0.00 | 0.01 | 0.00 | 1 | 1006.6 | |
| 20260901205522 | 55 | 0.0 | 3.0 | 0.00 | 0.01 | 0.01 | 1 | 1006.5 | |
| 20260901204521 | 55 | 0.0 | 0.0 | 0.00 | 0.01 | 0.01 | 1 | 1006.6 | |
| 20260901203522 | 55 | 0.0 | 0.0 | 0.00 | 0.01 | 0.01 | 1 | 1006.6 | |
| 20260901202522 | 55 | 0.0 | 2.0 | 0.00 | 0.01 | 0.01 | 1 | 1006.6 | |
| 20260901201521 | 56 | 0.0 | 2.0 | 0.00 | 0.01 | 0.01 | 1 | 1006.6 | |
| 20260901200522 | 56 | 293 | 1.0 | 7.0 | 0.00 | 0.01 | 0.01 | 1 | 1006.6 |
| 20260901195542 | 56 | 0.0 | 0.0 | 0.00 | 0.01 | 0.01 | 1 | 1006.6 |